Location: Fouquenies
(49.4624°N, 2.0492°E)
Time: 06:59:35
(UTC+00:00)

PRISM - Visible Passes

Search period start: 03 December 2023 00:00
Search period end: 13 December 2023 00:00
Orbit: 523 x 542 km, 98.2° (Epoch: 02 December)

Date Brightness Start Highest point End Pass type
(mag) Time Alt. Az. Time Alt. Az. Time Alt. Az.
03 Dec ? 06:49:47 10° NE 06:52:26 18° E 06:55:03 10° SE visible
04 Dec ? 06:40:37 10° ENE 06:42:42 14° E 06:44:44 10° ESE visible
05 Dec ? 06:31:51 10° ENE 06:32:54 11° E 06:33:57 10° ESE visible
12 Dec ? 06:56:09 10° NE 06:58:55 19° E 07:01:39 10° SE visible
